GFSNW_sfc_wetblb_273.txt.gz
Wetbulb
55.16 54.88 54.60 54.03 53.30 52.33 48.19 41.44 47.52 53.62 53.74 47.29 41.78 42.39 45.47 49.35 50.33 50.97 48.10 48.33 47.29 45.64 45.60 43.84 43.76 45.88 47.63 52.00 49.18 44.86 45.16 40.11 39.15 44.63 46.63 47.42 43.75 42.51 39.28 36.28 34.32 33.47 34.40 37.82
55.18 54.86 54.45 53.95 53.06 52.44 46.89 41.70 42.43 50.74 51.90 40.86 39.28 42.53 46.78 47.83 48.12 47.79 46.44 46.70 48.35 47.71 44.99 42.29 45.01 47.68 52.37 54.21 50.95 46.21 46.16 39.36 36.21 39.86 41.96 43.06 42.16 41.96 38.01 36.81 35.25 34.03 34.87 39.52
55.39 55.02 54.80 54.25 53.55 52.99 45.73 44.24 41.70 45.59 45.01 42.32 40.11 39.34 41.46 43.10 48.04 47.39 46.66 46.20 46.99 44.99 43.49 44.25 44.55 47.63 52.55 53.93 53.79 60.35 51.85 38.70 39.34 37.41 40.59 42.86 41.35 43.47 42.06 40.45 35.40 35.98 37.02 40.76
55.51 55.37 55.10 54.48 53.75 53.25 46.16 43.61 40.23 43.45 39.08 40.41 41.05 40.73 40.97 42.25 43.56 46.63 45.79 44.03 45.08 43.67 41.36 44.55 44.71 47.77 49.02 52.17 54.09 50.69 46.57 40.70 38.19 41.86 43.19 43.39 44.46 44.82 42.55 39.74 39.22 38.21 41.02 40.06
55.45 55.43 55.18 54.74 53.51 52.14 47.08 42.60 41.86 43.01 39.72 41.19 39.79 39.83 40.17 43.78 44.72 44.08 43.15 43.21 46.35 47.28 44.35 45.58 44.51 45.72 44.73 45.22 49.42 47.67 46.03 42.29 40.81 41.91 44.40 44.70 43.06 45.18 44.66 43.75 42.56 40.95 40.97 41.32
54.94 55.51 55.43 54.74 53.24 50.95 45.35 45.82 45.51 43.34 39.49 38.50 37.11 38.96 42.61 44.24 45.80 46.43 47.99 46.47 44.20 44.02 46.82 49.47 50.13 49.23 48.38 47.38 46.17 45.85 43.94 42.92 41.05 37.78 42.75 43.18 39.34 41.84 44.23 44.16 44.53 44.01 41.26 43.83
53.74 54.99 55.47 54.33 53.68 52.32 49.29 46.27 44.76 41.55 37.25 39.45 40.34 44.22 44.74 45.17 44.86 43.54 47.40 48.17 44.44 48.73 51.13 48.35 47.29 46.62 45.72 47.58 47.79 48.09 44.69 41.94 41.02 38.60 40.07 35.05 41.42 47.58 46.86 47.25 49.58 50.34 49.76 51.96
53.43 54.13 55.61 54.41 54.42 52.25 48.31 47.83 45.61 41.87 37.41 41.36 42.14 42.79 42.12 43.43 43.80 44.40 46.38 48.35 48.70 49.12 44.72 40.90 38.57 38.49 41.08 44.41 46.68 44.82 45.83 41.91 39.28 39.38 37.42 41.54 46.50 49.27 48.35 45.06 46.38 51.32 50.58 51.91
53.10 53.55 54.85 55.43 54.70 52.50 48.80 48.06 48.10 44.78 39.38 38.31 44.62 41.76 41.96 39.84 38.75 42.33 44.93 48.58 47.87 47.55 42.09 40.61 34.90 33.81 38.17 38.27 41.96 40.88 43.59 45.72 41.78 38.32 38.11 35.77 43.37 51.99 54.48 51.28 41.35 51.71 52.51 51.55
52.66 53.43 54.13 55.26 55.27 53.58 51.06 48.21 48.51 45.01 40.79 41.43 41.81 40.58 40.45 42.66 40.50 39.82 41.90 44.57 45.21 47.31 40.68 37.32 36.07 35.99 40.92 36.77 36.33 35.80 37.09 36.92 38.24 39.00 39.02 44.13 48.52 51.58 54.05 42.74 41.34 51.35 52.57 52.13
52.19 52.79 54.05 54.87 54.78 54.94 50.82 48.28 49.65 46.71 41.33 42.76 46.06 46.47 43.08 42.28 41.20 39.04 42.19 41.86 42.60 41.83 38.84 39.15 38.53 37.50 39.14 37.45 38.41 37.16 37.27 35.51 34.88 37.12 35.39 35.20 50.82 50.66 46.95 48.88 51.12 52.99 52.61 52.54
52.12 52.73 53.97 54.84 54.49 54.39 53.03 45.52 50.05 53.39 48.39 43.43 46.34 48.43 49.26 47.71 47.05 42.81 42.12 40.42 41.19 43.00 40.24 40.96 40.21 39.24 40.08 37.28 36.04 42.30 38.21 41.07 39.71 40.84 40.18 47.62 49.62 49.69 51.86 52.44 52.37 53.56 53.34 53.54
51.96 52.50 53.76 54.47 54.23 54.09 53.68 47.97 48.08 46.91 46.89 45.37 41.11 43.57 47.42 47.92 48.95 49.51 41.48 42.40 43.90 46.01 50.52 43.20 40.62 38.84 41.32 36.53 38.18 39.34 42.69 45.46 40.84 41.17 43.72 47.21 49.14 50.59 53.29 53.85 53.48 55.28 55.51 55.53
51.73 52.56 53.37 53.99 54.14 53.32 52.85 51.07 51.19 50.13 46.76 42.31 40.86 47.78 46.62 48.75 47.71 48.63 49.15 46.34 45.59 45.21 46.44 45.33 43.02 41.11 42.86 39.37 40.80 40.27 42.81 42.89 41.30 40.89 44.15 46.46 48.30 49.55 52.52 53.47 54.30 54.75 55.72 55.92
51.98 52.79 53.31 53.63 53.62 52.50 49.89 49.11 52.55 52.96 44.89 41.48 41.15 45.90 46.34 46.97 46.31 47.12 48.27 45.93 45.92 46.43 45.92 44.68 40.03 42.23 42.25 41.05 40.08 38.73 43.78 41.22 38.80 39.28 44.36 44.77 46.28 48.84 52.90 52.37 52.77 53.72 54.36 54.16
52.62 52.26 52.09 53.12 52.82 51.91 47.97 47.97 51.50 52.59 51.98 45.44 40.02 42.74 44.14 46.54 48.08 49.13 45.81 45.80 46.06 47.44 45.26 44.50 45.92 48.01 45.76 41.75 38.33 43.19 45.42 45.56 44.80 43.63 47.79 47.44 48.77 50.32 52.19 52.40 52.77 53.79 53.87 54.29
52.46 52.15 52.03 52.22 51.95 46.67 45.60 44.07 50.59 53.26 52.86 44.99 40.36 38.31 42.94 46.89 48.32 47.33 47.14 47.42 45.43 46.10 46.62 41.92 41.66 42.68 46.78 43.13 39.06 43.72 45.68 46.49 47.61 47.97 47.42 45.49 49.27 48.38 51.20 52.63 54.12 54.36 54.19 54.92
52.54 51.94 52.12 52.06 51.70 50.47 45.97 48.09 51.67 53.51 49.26 47.32 41.06 38.12 39.63 46.31 42.91 41.70 45.66 44.03 43.80 43.28 42.47 44.14 41.75 42.15 43.44 41.13 43.92 43.81 47.02 48.28 47.55 47.86 48.33 48.14 49.98 49.22 50.58 52.24 52.92 52.73 52.63 53.95
52.38 52.44 52.05 49.49 46.35 44.88 50.26 55.09 55.13 53.99 50.32 43.79 43.25 36.13 34.39 44.42 42.33 42.32 42.91 43.26 39.10 43.31 44.29 44.86 45.44 42.38 40.96 42.49 42.70 44.34 46.62 46.93 47.59 49.74 50.30 50.21 48.48 49.72 50.64 51.38 51.80 52.98 52.81 52.89
51.61 48.73 46.16 47.95 51.63 56.57 54.66 48.90 48.10 47.95 48.32 46.89 41.61 41.94 37.46 41.72 40.80 40.57 41.94 42.96 37.74 38.16 42.38 45.97 42.34 39.19 44.65 47.00 47.49 48.04 48.82 48.57 48.92 46.69 46.50 48.47 48.98 49.95 51.00 50.97 52.03 52.19 51.97 52.70
46.71 47.66 48.71 52.20 55.53 48.53 49.29 45.84 43.92 42.90 42.31 42.91 42.36 39.85 37.84 43.35 39.36 40.28 43.29 38.85 42.01 37.04 39.22 40.74 40.47 40.06 44.29 47.12 46.66 48.25 48.98 49.81 50.72 50.11 49.96 50.61 50.80 50.69 50.43 50.51 51.50 52.75 53.01 52.89
45.88 45.67 46.42 46.46 46.20 47.19 44.60 43.22 44.44 42.79 38.86 41.78 40.00 40.83 41.69 41.86 43.61 43.43 43.14 40.11 41.33 36.80 43.90 40.51 37.64 41.68 45.04 44.35 47.86 49.86 50.76 50.55 50.27 51.11 51.09 52.86 52.85 52.22 50.96 50.96 51.96 52.52 53.27 53.16
46.73 46.78 47.37 46.90 45.50 39.13 40.37 35.82 38.09 37.36 41.50 43.43 43.50 41.60 43.47 44.01 42.15 41.92 41.20 38.67 37.66 43.54 39.28 38.48 41.14 44.39 44.84 47.20 48.90 50.80 52.73 52.83 52.33 52.48 53.57 53.42 52.15 52.28 52.30 52.19 52.65 53.27 52.75 53.48
42.76 43.59 37.15 41.57 40.75 39.61 39.59 40.29 41.04 44.77 43.35 43.04 43.39 41.89 41.74 40.53 41.72 40.08 39.28 40.52 41.01 36.70 32.98 35.15 40.23 42.59 46.46 48.65 50.65 51.52 52.08 51.43 51.61 51.29 51.95 52.43 53.14 52.39 52.49 52.08 52.92 53.06 53.72 54.85
42.43 44.18 36.83 39.44 42.65 43.74 44.78 46.07 44.25 45.13 42.96 40.14 39.39 38.39 40.64 37.53 37.03 38.11 39.22 38.61 34.07 34.87 34.48 38.97 42.78 43.84 46.38 48.65 49.78 50.82 52.05 51.95 51.45 51.26 51.95 51.99 53.34 53.14 51.38 51.88 52.64 53.01 54.25 56.63
43.49 42.96 40.95 43.08 42.00 42.50 42.97 43.20 42.22 43.68 42.39 40.29 42.06 38.47 36.08 35.20 36.21 35.81 37.02 34.28 33.03 36.71 39.77 43.25 43.34 43.91 45.52 48.78 49.79 51.20 52.38 52.06 51.52 51.89 51.97 52.32 51.96 51.34 52.06 53.56 53.53 54.29 54.33 54.84
47.09 43.31 45.23 43.57 43.74 43.59 44.42 44.06 45.16 44.91 43.89 40.74 39.08 38.29 37.33 36.67 33.80 33.75 37.27 36.33 38.54 40.59 42.21 42.57 42.52 43.67 44.92 48.55 49.68 50.31 51.50 52.24 51.96 52.48 52.42 52.74 53.04 52.97 52.38 52.49 53.59 53.84 53.61 56.11

GFSNW_sfc_wetblb_276.txt.gz
Wetbulb
55.05 54.79 54.75 54.08 53.15 51.88 46.53 43.06 46.08 51.50 52.17 46.80 40.24 41.66 43.56 47.50 48.20 49.05 45.95 47.12 45.68 43.51 43.98 41.91 41.79 43.66 46.90 52.28 47.40 43.46 42.81 38.80 37.24 41.90 44.65 45.87 42.84 41.20 38.35 36.64 34.23 32.20 33.01 36.67
55.01 54.75 54.77 53.88 53.07 52.03 44.66 42.91 42.68 49.28 50.64 40.92 38.12 40.88 44.64 45.46 45.08 45.78 44.97 45.62 45.88 45.82 43.06 40.62 43.71 46.25 51.50 53.12 50.87 46.57 43.74 38.46 35.75 40.74 41.67 42.76 41.19 40.56 37.74 35.68 34.76 33.34 34.65 38.89
54.85 54.91 54.73 53.92 53.19 52.68 45.71 43.19 41.98 44.88 44.35 40.41 39.20 38.24 39.63 41.91 47.47 45.44 44.82 44.06 45.75 44.72 43.47 44.53 43.11 47.40 51.35 52.44 51.72 57.80 50.54 37.48 39.68 37.68 40.27 41.05 41.13 42.23 39.89 38.65 34.62 36.01 35.72 41.04
54.20 54.85 54.75 54.08 53.64 52.58 46.15 42.76 39.28 41.66 37.62 40.09 39.49 38.86 39.17 40.77 42.89 46.11 45.15 42.80 43.30 42.49 39.16 43.44 43.77 47.17 48.48 51.08 53.55 49.71 45.71 41.23 37.93 40.45 43.66 42.38 42.16 42.82 42.31 38.94 39.73 39.88 43.76 38.83
53.50 54.44 54.24 54.00 53.09 51.49 46.08 41.63 40.22 40.96 37.83 38.95 37.62 38.79 38.04 42.02 43.23 42.69 41.98 42.34 45.72 43.27 41.59 43.63 43.48 44.74 43.36 45.10 48.16 46.87 44.97 41.20 40.39 41.24 45.72 44.65 43.67 44.13 43.68 41.68 41.54 40.56 41.36 40.85
53.44 53.93 54.00 54.30 52.47 50.57 44.75 44.57 44.01 40.76 37.87 36.76 34.25 37.95 41.12 43.17 43.71 43.73 46.19 45.78 42.67 41.19 44.53 46.46 46.77 47.59 46.76 45.53 45.17 44.84 44.09 41.92 40.17 37.86 41.71 43.19 41.21 42.49 43.43 43.15 47.24 45.06 39.51 44.59
53.32 53.81 54.34 54.89 53.22 50.88 46.50 45.29 43.78 39.52 35.25 38.13 39.33 42.61 43.29 43.22 43.16 41.48 45.52 46.06 43.61 46.49 48.61 47.02 43.16 42.94 44.07 44.56 45.81 46.05 42.76 40.81 39.60 37.94 39.66 35.04 42.97 48.39 48.55 47.62 49.32 49.67 49.87 51.10
52.99 53.47 54.02 55.05 54.19 51.48 48.18 46.29 44.22 40.36 35.15 39.74 40.44 41.89 41.02 42.25 42.91 42.84 44.04 46.70 46.93 46.45 43.49 39.22 36.77 36.81 38.72 42.30 44.63 43.03 43.46 40.83 38.36 37.10 36.40 40.65 45.77 49.39 48.71 46.07 45.71 50.97 50.47 51.52
52.49 52.99 53.78 54.65 54.29 52.23 48.06 46.92 46.31 43.30 38.44 37.37 43.68 40.46 40.58 38.61 37.74 41.01 43.63 46.85 46.60 46.78 40.96 38.98 33.14 32.68 35.30 36.77 39.57 40.32 41.43 40.86 38.76 36.00 34.56 34.52 43.43 51.00 53.04 52.44 41.83 51.70 52.58 51.36
51.84 52.66 53.49 54.17 54.59 53.21 50.28 47.25 47.07 43.82 40.30 40.20 41.33 39.55 39.26 40.82 38.69 38.24 40.29 43.50 43.63 44.70 38.99 36.21 34.71 34.66 39.79 36.18 36.15 36.26 36.08 35.60 36.03 36.15 35.07 39.51 47.76 50.80 52.45 41.94 43.59 51.70 53.22 52.51
51.43 52.24 52.93 53.87 54.43 54.39 50.76 46.72 47.80 45.43 39.91 41.73 44.94 45.62 42.34 41.32 40.08 37.86 40.72 40.56 40.90 40.88 37.73 37.37 36.95 36.31 38.12 36.82 37.88 36.00 36.41 34.84 33.75 35.36 34.28 34.49 49.61 48.65 44.57 47.71 50.92 52.97 54.24 53.79
50.86 52.16 52.45 53.70 54.36 53.85 52.24 44.65 48.57 51.99 47.84 43.34 45.60 47.15 47.98 47.17 45.45 41.96 40.19 39.02 39.63 41.23 38.54 40.21 38.50 37.82 38.33 36.18 34.94 41.10 37.72 39.47 38.82 38.67 38.27 45.32 48.95 48.77 50.72 51.31 50.76 51.94 53.32 54.28
50.84 51.31 52.23 53.81 54.12 53.70 52.41 50.13 48.15 45.75 45.42 43.51 41.20 42.11 45.50 47.29 47.90 47.70 40.68 41.22 42.91 42.82 46.71 41.01 39.45 37.58 40.15 35.79 36.74 38.45 41.59 45.55 40.96 41.04 42.68 45.87 48.67 49.86 50.57 52.68 54.34 54.28 54.45 54.59
50.82 51.27 52.53 53.65 53.76 53.31 52.29 48.13 49.81 48.76 45.71 41.80 40.26 46.77 45.36 47.76 46.93 47.59 47.07 44.47 44.38 43.75 44.91 41.55 40.71 40.31 42.86 37.99 39.74 39.02 42.27 42.09 39.93 39.87 42.68 45.11 47.03 48.63 50.55 52.35 53.70 53.71 54.05 54.92
51.64 52.57 52.53 52.09 53.18 52.61 49.64 46.90 50.50 50.22 44.11 40.46 39.96 44.65 44.07 45.77 46.12 46.44 46.59 45.21 41.81 41.99 42.66 43.54 42.13 42.90 43.25 42.83 40.77 37.79 42.27 41.97 38.60 38.85 43.41 43.40 44.41 48.42 49.98 50.23 50.23 52.23 52.45 52.82
51.79 52.55 52.42 51.62 52.59 51.72 45.96 43.23 48.89 50.01 49.81 45.31 39.71 42.41 42.52 44.75 45.88 44.65 44.24 44.58 42.75 42.74 41.62 41.54 43.09 44.85 45.25 41.87 38.93 41.16 43.67 44.45 44.67 44.04 46.34 45.49 47.19 49.30 50.65 49.29 50.02 51.64 51.96 53.15
52.25 52.45 51.69 51.86 51.84 48.42 43.28 42.52 49.57 52.29 52.70 45.47 39.71 37.18 42.04 44.66 45.83 45.80 45.54 45.32 43.57 43.47 42.46 41.45 41.52 42.04 46.23 43.74 39.61 42.20 44.26 45.25 46.96 47.14 45.78 44.10 46.44 45.82 49.20 50.02 51.32 52.67 53.79 54.01
52.55 52.40 51.95 51.79 50.95 50.23 46.42 47.05 51.02 52.09 49.31 47.25 40.68 37.09 38.70 44.67 41.97 41.23 43.37 42.49 42.05 41.85 41.93 45.37 43.83 44.38 44.24 40.64 40.92 43.71 46.51 47.60 47.77 48.22 49.64 48.86 49.29 49.80 49.28 50.17 50.71 50.97 51.58 52.39
51.08 51.60 51.27 49.44 47.56 45.15 48.78 55.39 53.73 53.63 49.83 44.17 43.27 38.05 32.75 43.04 40.93 40.69 41.37 41.84 38.43 41.96 40.96 42.20 44.76 42.66 40.54 42.83 44.78 45.51 46.76 46.73 46.04 48.01 48.59 49.14 49.25 49.69 49.66 50.27 50.24 50.12 50.87 51.93
51.13 48.72 45.43 47.32 50.60 55.16 54.37 48.00 48.51 47.81 48.73 47.12 41.84 42.54 37.07 40.02 39.28 39.25 39.09 42.23 38.22 35.06 39.64 43.91 42.25 40.54 44.27 46.75 47.57 47.76 48.09 48.79 49.14 47.12 46.64 47.01 47.02 48.08 49.21 50.00 50.89 51.21 51.71 52.24
46.19 47.62 47.75 51.36 54.77 47.87 47.59 45.62 43.97 43.41 41.71 43.79 42.23 40.86 36.96 41.46 37.79 37.91 42.76 38.42 41.17 37.01 39.60 39.37 39.48 40.30 44.55 47.85 44.96 46.44 49.18 50.21 50.14 49.82 50.07 50.06 49.39 48.98 49.56 50.63 51.83 51.91 51.75 51.98
46.87 46.42 46.49 45.77 46.02 45.99 44.38 42.82 44.08 41.97 38.73 39.99 38.97 39.40 40.40 40.23 42.07 44.08 43.01 40.00 40.97 35.12 43.27 38.27 37.73 41.23 46.24 44.04 47.39 48.48 49.81 51.79 52.19 52.28 51.59 52.26 52.19 51.88 52.09 52.26 51.86 51.60 52.27 53.32
47.93 45.46 45.86 46.29 43.98 38.67 39.77 33.70 36.14 37.33 39.68 41.13 41.30 40.31 41.70 44.21 42.95 43.04 41.42 38.71 37.04 42.70 38.73 37.46 41.06 42.77 43.21 45.20 48.15 49.70 51.81 52.64 52.31 51.95 51.86 52.18 52.49 53.16 53.16 52.12 52.40 52.70 52.57 53.37
41.92 41.80 35.77 41.64 38.47 38.75 38.64 38.51 39.08 42.33 42.11 41.61 41.87 43.66 41.09 40.89 40.94 40.18 38.30 39.24 41.45 36.53 33.42 34.35 40.62 42.56 43.63 45.76 48.79 49.94 50.09 51.72 51.73 51.60 51.79 51.69 51.91 52.26 53.29 53.07 52.22 51.71 52.29 53.48
40.92 41.67 36.85 38.87 41.19 41.82 43.11 43.76 42.95 44.55 43.11 42.30 38.32 37.95 40.05 38.16 37.07 38.84 38.17 38.08 33.45 34.68 34.20 35.72 41.03 43.57 44.28 45.38 48.23 49.51 50.18 51.04 51.71 51.60 51.38 51.81 51.98 52.77 52.94 53.79 52.58 52.69 52.95 53.42
42.70 41.96 40.14 41.33 40.71 41.34 41.86 42.46 42.59 43.83 41.51 39.27 40.76 39.79 38.32 36.82 35.54 35.32 35.36 34.15 30.57 34.99 38.11 40.31 42.60 44.00 43.97 44.71 47.91 49.78 50.48 50.95 51.72 51.67 52.20 52.32 51.93 51.75 53.53 54.64 53.51 53.64 53.96 55.28
43.83 42.11 43.20 41.34 41.27 41.41 42.38 43.14 43.13 43.71 42.16 39.85 40.53 38.71 38.53 37.27 33.32 33.23 35.02 33.74 36.84 39.36 40.42 41.88 42.32 43.76 44.08 44.94 47.87 49.18 49.89 50.89 52.14 52.19 52.02 51.98 51.41 51.57 52.67 52.20 53.26 55.41 56.32 54.57

GFSNW_sfc_wetblb_279.txt.gz
Wetbulb
53.80 54.12 53.80 53.35 52.94 51.72 49.59 53.67 52.75 56.29 57.54 54.19 49.41 50.42 49.63 48.03 49.97 51.39 50.14 51.73 50.38 49.47 49.33 49.13 48.85 49.59 52.57 55.66 52.69 49.67 50.70 49.47 47.39 48.96 51.15 51.11 51.23 51.18 50.16 46.59 45.96 44.88 44.66 46.74
53.53 53.67 53.67 53.41 52.90 51.47 50.15 51.71 51.92 56.49 56.20 50.31 48.63 48.82 49.13 48.83 48.86 48.68 49.00 49.18 50.27 50.40 49.90 49.01 49.70 51.37 55.03 55.87 55.69 53.23 50.62 48.56 47.12 48.74 49.75 49.34 49.32 48.59 49.65 47.85 47.58 47.57 44.74 47.52
53.59 53.63 53.76 53.98 53.17 51.95 51.55 51.61 50.27 52.15 51.68 48.64 48.21 47.19 46.42 46.75 50.67 49.41 49.22 49.39 51.19 50.88 49.77 52.23 50.19 52.10 54.51 55.20 55.97 55.02 55.96 50.10 50.44 46.78 49.68 50.07 49.55 49.96 47.70 48.11 46.33 47.93 47.31 49.72
53.53 53.70 54.00 54.27 52.99 51.95 52.72 49.14 45.70 46.85 46.08 47.26 46.55 46.92 46.27 46.17 46.59 50.29 50.78 49.39 48.85 48.81 48.13 49.86 50.59 52.19 53.26 54.71 56.29 55.24 54.36 50.76 47.77 49.60 49.71 50.06 50.64 50.43 51.04 47.29 49.36 46.93 49.78 50.16
53.30 53.68 54.29 54.43 52.46 51.19 50.89 48.13 47.53 46.58 45.17 44.61 45.28 44.33 44.93 45.34 46.51 47.60 47.12 47.70 49.08 49.04 49.71 49.91 49.51 51.15 51.85 51.64 54.23 53.80 53.08 50.38 50.25 49.65 52.23 50.94 48.63 50.80 51.19 51.34 50.52 49.29 48.46 48.97
53.22 53.63 54.00 54.41 51.91 51.78 50.73 50.31 50.19 46.94 42.46 43.97 43.96 44.59 44.64 45.36 47.01 48.30 49.97 48.99 48.81 47.60 50.01 51.29 52.59 53.10 53.19 52.54 51.40 50.86 51.09 51.58 49.15 46.25 49.91 50.04 47.16 51.00 51.39 51.45 51.60 50.42 47.80 53.15
52.95 53.53 53.86 54.45 52.51 51.41 52.67 49.74 49.10 47.05 43.40 45.60 44.97 44.90 45.26 45.18 45.96 45.27 48.54 49.96 49.18 50.74 53.52 53.71 51.19 50.72 51.19 51.75 52.81 53.11 50.72 50.41 49.47 44.78 47.57 39.46 49.68 54.21 52.85 50.86 52.37 53.85 54.04 54.66
52.46 53.12 53.84 54.15 53.77 51.77 53.06 51.87 50.04 47.18 43.57 45.33 45.08 44.90 44.90 46.19 47.21 46.30 47.41 49.76 51.32 52.84 51.66 48.31 45.99 46.25 47.25 48.90 51.50 51.87 51.41 50.25 45.46 42.25 42.08 45.56 48.45 52.30 52.46 51.98 51.77 54.99 54.31 55.08
51.87 52.87 53.64 53.85 53.95 52.23 53.45 52.29 51.48 49.50 46.11 45.10 46.34 45.19 44.90 45.23 45.47 46.63 47.77 51.65 52.61 52.48 50.69 46.86 41.12 38.92 43.03 42.46 46.47 49.69 50.39 51.12 47.52 44.53 40.94 38.11 48.55 53.20 55.39 54.71 47.94 55.41 55.50 55.57
51.24 52.33 53.17 53.84 54.27 53.03 52.48 52.79 52.25 50.08 46.29 47.34 47.03 45.91 45.28 46.97 45.97 45.04 46.12 47.70 48.86 50.37 48.06 43.64 42.03 41.20 45.78 41.22 42.20 44.60 45.57 45.95 44.24 43.96 41.71 44.80 51.15 53.05 55.24 46.15 48.29 55.36 56.32 56.55
50.89 51.75 52.57 53.71 54.23 54.11 52.98 52.25 53.32 50.92 47.53 46.98 47.94 48.66 46.86 46.84 46.96 44.37 46.70 46.38 47.08 48.94 45.58 45.77 45.19 44.06 46.29 44.21 45.54 45.01 44.30 43.10 42.12 43.99 40.92 37.99 53.39 52.10 48.06 51.57 54.28 55.27 56.12 56.99
50.59 51.12 52.21 52.78 54.15 53.70 53.00 51.50 53.00 53.47 49.48 48.14 49.64 50.85 51.65 50.55 49.85 48.31 47.28 45.76 45.67 48.35 46.93 47.00 46.59 44.80 46.05 44.04 41.12 48.33 43.44 46.85 45.63 46.13 45.89 52.11 54.36 53.16 53.47 54.61 54.02 55.25 56.82 57.04
50.89 51.02 51.77 53.06 53.80 53.36 52.58 51.22 52.51 51.06 48.36 47.80 47.25 48.19 50.93 52.14 51.92 53.50 47.11 47.98 48.02 49.56 51.61 49.31 48.24 44.13 47.24 41.98 43.43 45.35 48.10 49.61 47.14 47.43 50.28 50.49 51.06 52.36 53.13 55.07 53.57 55.34 57.17 56.69
51.26 51.06 52.13 52.27 52.55 53.01 52.22 50.83 53.26 51.47 48.96 43.53 46.14 50.45 50.12 52.22 51.66 51.74 51.76 49.77 50.13 50.49 51.26 48.46 46.88 44.44 48.55 44.25 45.45 44.62 47.12 48.66 47.04 46.83 48.74 49.73 50.51 51.81 53.03 53.17 53.95 54.37 55.90 55.56
51.31 51.62 52.42 52.08 52.04 52.18 52.51 51.62 52.91 52.90 49.37 44.68 45.90 50.19 50.03 50.82 50.99 50.35 50.95 49.98 48.49 48.27 47.23 47.51 45.64 48.78 47.27 47.87 46.85 44.80 48.65 46.67 44.48 43.44 49.43 49.04 49.57 52.23 53.30 52.28 53.28 54.52 54.10 53.94
51.80 52.24 52.50 51.98 51.40 51.03 51.83 49.89 52.60 53.61 53.35 46.51 41.40 49.26 48.48 50.24 50.26 49.40 49.31 49.49 48.39 48.52 47.35 47.33 49.14 51.01 49.26 44.82 42.05 47.45 50.17 51.47 51.19 48.60 51.57 51.32 51.94 53.04 53.56 52.58 53.52 54.84 54.79 55.17
51.99 52.51 52.34 51.75 51.76 50.56 48.67 48.38 51.41 51.74 53.96 47.26 42.71 43.49 48.84 48.70 50.02 52.04 50.96 49.17 49.19 48.70 48.71 47.61 47.87 48.45 49.11 46.18 41.90 48.34 50.34 51.30 51.39 52.89 53.02 51.14 53.28 52.15 54.55 54.42 54.80 55.21 55.71 55.94
51.91 51.58 51.33 51.03 50.94 50.31 48.86 52.28 50.98 51.22 50.85 48.58 41.98 42.64 45.44 49.58 49.26 48.67 50.41 50.63 50.23 49.81 48.98 48.73 47.50 49.40 48.24 43.91 47.08 47.83 48.79 49.52 49.77 50.45 51.32 50.94 52.59 52.84 53.06 54.49 54.81 54.09 54.48 55.76
51.26 51.30 51.32 50.05 48.43 47.72 51.44 55.23 53.26 54.27 50.66 45.61 44.82 40.16 41.79 48.82 48.38 48.74 48.83 49.11 45.65 48.98 46.21 47.97 49.05 45.69 43.28 46.68 46.43 46.99 47.91 48.03 48.90 51.36 51.52 51.90 51.90 52.30 52.85 53.05 53.19 52.96 53.98 55.74
51.05 50.28 48.57 49.06 52.26 54.09 55.09 52.59 49.17 48.80 49.75 48.69 41.98 46.12 42.30 46.43 47.34 47.72 47.44 48.04 45.41 41.83 45.65 48.80 45.49 43.63 48.40 49.08 49.75 48.90 50.38 51.40 52.11 49.68 48.87 50.37 50.97 51.78 52.70 53.17 54.21 54.23 54.29 55.46
48.42 48.75 48.56 50.16 54.76 51.94 50.20 46.64 44.27 44.71 42.26 45.06 44.61 44.63 43.85 47.74 44.91 46.18 48.50 45.55 43.46 38.62 44.07 43.68 42.65 43.89 47.91 50.25 50.22 51.15 51.82 52.28 52.46 52.81 52.65 52.57 51.73 51.08 52.01 52.89 53.84 54.85 55.45 55.62
48.05 48.05 49.15 50.30 48.19 46.61 44.51 44.01 44.68 42.83 40.73 46.18 45.01 46.31 44.94 47.57 48.88 47.12 47.82 43.48 43.04 37.47 47.04 42.67 38.64 45.31 48.53 49.40 49.64 50.37 51.96 52.31 51.78 52.72 52.40 52.50 52.16 52.73 52.41 53.35 53.56 54.17 56.19 56.75
49.64 47.05 46.76 45.98 46.35 38.53 40.49 37.45 41.53 42.12 46.10 47.31 46.99 46.60 48.02 46.18 47.04 46.03 44.91 40.64 40.17 46.68 41.63 38.86 42.57 47.98 47.69 49.55 50.36 50.13 50.82 51.76 51.60 52.01 52.62 52.71 52.17 53.14 53.31 52.53 53.45 54.48 56.01 56.46
46.12 44.66 36.29 42.18 40.70 42.70 44.11 44.02 45.12 48.52 48.01 47.52 47.87 48.26 45.51 45.58 44.58 44.00 40.48 44.47 44.30 38.09 35.04 36.77 45.52 47.21 48.95 50.52 50.71 50.29 49.82 50.42 50.60 50.94 52.12 51.92 52.17 52.10 52.16 54.31 54.88 54.61 54.99 56.34
44.29 45.06 37.43 41.96 45.73 46.82 48.07 49.00 48.20 49.70 50.43 48.42 46.14 45.50 46.95 43.14 43.44 42.11 41.23 39.60 36.48 36.50 36.95 43.58 47.33 49.38 49.84 50.14 49.44 49.72 49.80 49.59 49.90 51.80 51.86 52.06 51.66 50.71 52.23 54.68 54.80 55.11 56.85 56.99
43.43 43.28 41.83 46.20 45.41 46.78 47.98 48.37 48.02 51.11 49.57 47.43 47.03 44.32 42.38 42.22 42.55 39.75 39.10 36.90 34.89 40.93 45.47 47.57 48.18 49.19 50.39 49.88 49.51 48.86 50.52 50.02 51.43 52.51 52.02 51.68 50.95 51.39 53.59 55.04 56.51 56.80 57.06 57.11
43.20 42.47 46.82 46.40 45.97 45.60 47.69 49.24 49.78 50.77 48.24 45.50 46.02 42.06 40.93 42.70 40.36 38.95 42.20 40.35 44.33 47.14 47.84 48.56 49.43 49.31 49.81 49.71 49.18 49.84 50.11 50.32 50.97 51.94 51.59 52.33 52.44 52.93 52.76 53.12 54.89 55.41 55.87 56.23

GFSNW_sfc_wetblb_285.txt.gz
Wetbulb
53.89 54.03 54.21 53.89 53.26 51.85 52.42 62.68 59.03 64.42 65.07 57.72 58.29 56.35 58.34 51.06 57.71 57.95 57.56 57.92 57.60 56.59 56.59 55.26 54.79 54.37 56.27 59.15 58.37 54.35 56.76 54.72 52.37 53.92 57.49 57.73 56.84 55.59 55.17 51.41 51.90 52.94 52.13 52.09
53.85 53.87 54.21 53.76 53.03 52.16 58.28 61.22 61.04 64.58 63.91 55.28 56.02 58.02 57.04 57.13 55.69 56.65 56.33 56.38 56.89 57.98 56.64 54.39 56.37 56.05 59.73 59.48 58.19 56.89 58.16 53.77 50.34 52.24 55.27 57.06 54.73 55.43 55.68 55.44 55.06 52.48 50.27 53.31
53.54 53.85 54.30 53.78 53.29 52.71 56.41 60.39 55.52 59.74 61.00 60.61 58.24 56.36 55.92 54.12 56.30 55.83 56.78 56.92 57.20 56.93 56.50 58.46 56.94 56.14 58.68 59.26 59.80 61.76 60.50 55.51 53.47 50.77 53.88 56.74 54.30 55.15 55.66 54.71 51.73 52.43 52.71 54.23
53.38 53.95 54.34 53.91 53.31 52.87 58.30 60.80 57.94 58.82 56.36 56.53 56.52 57.04 56.00 54.06 53.08 56.13 56.76 55.81 55.74 55.72 54.93 56.13 56.01 57.72 58.40 59.09 59.22 58.95 58.23 54.22 55.88 55.92 56.43 56.43 55.77 55.43 55.82 54.79 55.49 53.14 54.62 54.80
53.19 53.84 54.28 54.11 52.97 51.94 60.63 57.28 56.92 59.49 58.21 56.56 55.98 51.73 54.04 52.94 53.98 54.16 53.50 53.80 54.55 55.16 54.56 56.37 55.24 58.07 57.95 57.62 59.83 58.80 59.43 55.45 56.34 54.50 56.75 56.73 55.01 55.67 56.12 55.78 56.01 55.91 55.95 55.86
52.99 53.71 54.36 54.19 52.70 53.46 58.85 59.21 59.84 57.78 50.61 54.37 54.10 55.49 54.49 53.63 54.21 54.43 55.26 54.89 53.90 53.46 55.20 57.99 58.58 59.12 59.18 59.02 57.45 57.61 57.46 56.07 54.69 51.59 55.30 55.06 52.05 54.88 55.52 56.13 57.43 56.52 53.89 57.55
52.88 53.55 53.88 54.11 53.17 52.39 59.65 58.81 58.75 55.57 52.06 51.66 52.11 51.26 51.73 51.03 51.67 52.30 53.24 54.13 52.68 56.76 59.21 57.49 56.05 54.83 55.46 56.19 56.19 56.95 54.97 55.12 54.21 50.60 52.62 45.64 53.95 56.99 56.47 55.13 56.02 57.42 57.66 58.46
52.31 52.93 53.78 54.39 53.97 52.75 58.54 59.69 58.32 56.65 53.94 54.07 51.74 51.10 51.55 52.70 53.39 51.02 51.23 53.07 56.41 58.43 54.59 50.24 49.28 49.59 50.98 52.05 53.42 53.74 54.25 52.63 49.99 47.36 47.15 50.08 50.97 53.19 53.09 52.22 52.37 58.32 57.98 58.85
52.02 52.29 53.47 54.05 54.09 52.76 58.07 59.70 60.53 57.95 54.63 52.75 53.82 52.83 52.71 53.64 53.55 53.19 53.21 57.13 58.53 56.84 53.07 51.01 46.29 45.57 48.38 47.92 50.17 54.28 53.48 54.25 49.78 48.65 44.61 42.90 51.12 56.94 58.57 57.43 50.17 59.76 59.86 60.02
51.80 52.23 52.60 54.09 54.49 53.05 55.23 59.13 60.70 58.74 54.67 55.23 55.42 53.64 53.75 54.87 53.78 53.35 54.81 55.05 55.14 56.55 52.58 48.83 47.65 47.19 50.98 46.38 47.23 48.95 51.07 50.68 47.82 47.95 46.37 48.84 54.19 57.26 57.55 48.02 51.12 58.28 58.90 59.63
51.99 51.95 52.23 53.41 53.70 53.99 54.58 59.80 60.61 57.42 55.38 55.92 55.31 55.12 54.82 56.12 54.97 52.28 55.19 53.13 54.25 53.96 50.09 50.15 50.24 49.56 50.70 49.86 51.32 50.14 49.41 48.72 48.48 49.31 46.63 44.59 58.11 56.40 51.74 56.10 57.92 58.38 58.89 59.65
52.01 52.11 52.00 53.01 53.15 53.37 53.21 57.64 60.04 59.90 56.75 56.84 57.93 57.61 57.81 57.25 56.92 56.05 55.72 54.91 54.38 55.70 53.13 54.32 52.87 50.43 51.37 50.48 46.54 54.09 48.15 51.53 49.76 51.22 50.94 57.49 58.73 57.25 58.84 58.39 57.41 57.68 58.69 58.97
52.03 52.30 51.74 53.26 52.88 52.73 52.63 56.83 59.27 58.58 56.27 55.89 55.99 55.12 57.57 60.02 58.68 59.60 54.93 56.56 55.87 56.60 57.71 54.04 52.77 48.96 51.92 47.29 48.80 51.00 53.45 55.76 51.65 51.81 54.12 55.25 55.63 57.03 57.75 59.15 58.07 58.13 58.54 58.31
52.21 52.28 52.32 53.13 52.86 52.61 52.01 57.31 59.04 58.14 55.59 52.69 53.93 58.21 56.34 59.13 59.45 58.33 58.68 57.73 59.01 57.84 56.89 53.41 52.07 49.68 54.71 49.82 51.20 50.36 52.43 53.42 51.59 51.48 53.64 54.82 55.67 56.12 56.83 56.56 56.73 56.49 58.00 58.23
52.05 52.28 52.92 53.09 52.92 52.35 53.85 59.43 60.25 59.91 55.04 52.32 53.45 56.45 57.21 58.47 58.19 56.90 57.47 57.11 56.23 55.62 53.30 52.46 50.85 53.56 52.68 52.72 52.12 49.96 53.30 51.56 48.72 46.44 52.24 53.27 54.02 56.03 56.73 55.89 56.14 57.21 57.00 57.09
52.03 52.31 52.56 52.51 52.31 52.17 56.44 54.49 60.88 60.27 58.56 53.57 50.61 57.20 55.54 57.28 58.00 57.25 57.10 57.78 56.89 55.74 53.68 52.67 53.89 55.41 52.45 47.85 47.28 52.93 54.38 54.72 54.87 52.73 55.17 54.99 55.73 55.67 55.13 55.13 55.25 55.11 55.78 56.80
52.20 52.23 52.19 52.05 51.47 53.11 53.70 51.99 55.01 53.14 59.45 52.92 50.81 50.98 54.99 56.82 56.70 57.28 56.82 57.54 56.02 55.18 53.24 52.24 52.53 52.69 53.22 49.87 46.68 52.56 53.66 53.92 54.86 55.70 55.58 52.81 53.31 52.24 55.18 55.58 56.80 57.08 56.60 56.94
52.08 51.86 51.63 51.43 51.13 51.64 53.28 57.18 52.51 55.11 54.88 54.61 50.41 50.93 52.21 56.64 54.09 52.88 58.72 53.73 56.19 55.13 52.81 53.42 51.20 52.34 52.92 45.20 51.28 51.74 52.71 54.13 54.55 54.48 53.64 53.08 54.19 54.23 54.52 55.97 56.07 55.36 54.61 55.55
51.54 51.69 51.94 54.12 53.87 54.45 56.04 54.07 53.92 58.18 54.62 48.34 51.24 49.55 46.05 55.19 54.95 55.02 54.44 55.49 49.85 54.95 50.65 50.75 50.83 48.75 44.56 48.98 52.03 51.70 53.16 52.19 52.32 52.90 52.68 52.82 52.56 53.75 55.61 55.89 55.54 53.59 55.13 56.97
51.42 53.64 54.43 50.58 54.99 55.13 54.71 54.30 51.65 52.27 53.27 52.17 49.48 54.08 50.09 53.63 54.06 53.05 51.84 53.16 49.26 47.30 51.01 53.39 48.92 48.10 52.89 52.59 54.09 55.27 54.14 52.84 53.86 51.75 51.49 52.73 52.65 53.26 53.75 53.02 55.27 55.74 56.17 56.22
55.28 52.52 51.59 55.36 55.26 54.19 52.16 47.90 47.33 48.84 47.23 52.11 53.30 53.16 51.36 56.01 49.73 49.56 53.69 48.98 48.96 43.70 47.62 47.26 46.25 46.54 51.02 53.18 52.87 53.14 53.37 53.66 53.88 54.76 54.43 53.56 52.76 53.24 51.86 51.98 52.85 54.28 55.61 55.24
50.64 51.34 54.15 55.46 52.20 49.82 45.94 45.95 48.45 47.12 47.63 51.83 51.41 52.20 54.76 55.36 57.19 52.52 53.35 48.15 46.67 42.48 50.97 45.05 43.04 51.14 51.91 53.02 52.90 53.58 53.36 53.84 53.47 53.92 54.15 53.78 52.66 52.69 52.91 52.86 53.46 54.44 54.93 55.42
55.18 52.78 50.08 49.11 48.16 39.72 41.59 41.25 44.81 45.75 51.21 53.24 53.10 51.45 55.12 55.01 54.51 51.85 50.62 45.10 44.27 50.48 45.39 43.74 47.65 51.92 53.92 53.82 54.17 54.13 54.55 53.67 53.99 54.28 54.46 52.93 52.51 53.35 53.03 52.52 52.85 52.66 53.44 54.04
49.32 46.75 38.98 44.19 43.01 45.21 47.25 47.67 48.69 52.25 53.24 51.95 52.79 53.58 52.59 55.02 50.88 50.97 44.92 48.43 48.03 42.19 41.14 42.30 48.30 53.13 54.05 54.65 54.91 53.38 52.64 53.41 54.24 52.84 52.80 52.26 50.90 50.52 51.89 52.81 54.85 56.30 55.33 55.66
47.27 47.78 40.65 44.55 49.40 51.09 52.48 54.12 53.89 54.91 56.75 54.92 53.94 53.55 53.51 50.58 48.04 49.54 47.46 43.79 40.73 43.12 42.75 47.44 51.59 54.86 54.88 54.56 54.08 53.81 53.11 53.79 52.72 53.16 51.05 51.47 51.27 51.50 51.82 53.09 56.78 56.79 56.56 56.74
49.45 48.76 46.54 50.07 50.11 51.05 52.45 52.98 52.14 54.43 54.55 54.37 53.89 50.60 47.44 45.66 47.57 44.33 43.48 41.92 40.79 44.84 49.95 51.21 53.00 54.82 55.13 54.77 54.45 53.92 54.42 53.82 54.09 53.92 51.72 51.65 51.36 51.74 52.73 53.79 55.32 55.89 55.98 56.36
47.69 47.91 51.39 50.64 50.72 50.59 52.02 52.19 53.08 57.55 53.41 51.38 51.79 45.43 45.24 51.53 44.73 42.94 47.40 43.73 47.60 50.23 51.40 52.69 55.83 55.13 55.19 54.99 54.19 54.25 54.30 53.87 54.26 54.14 53.54 52.94 52.96 54.48 54.06 51.95 52.73 54.13 55.23 56.13

GFSNW_sfc_wetblb_291.txt.gz
Wetbulb
52.88 53.27 53.95 53.71 52.95 51.69 54.53 57.46 55.43 61.05 60.06 52.69 54.22 52.04 55.14 54.26 57.30 57.85 55.88 55.92 54.52 53.54 54.52 53.58 53.30 51.46 54.22 55.51 54.42 50.16 53.31 46.19 43.97 48.18 53.38 54.59 51.54 47.88 45.79 41.28 41.04 43.23 43.98 45.59
52.82 53.06 53.76 53.46 52.71 51.90 49.87 53.39 59.29 62.41 58.90 48.51 50.18 53.63 54.53 56.33 56.21 56.53 54.91 54.54 55.88 56.27 53.28 51.35 54.90 55.53 57.27 57.42 56.92 52.10 53.37 48.11 41.86 44.88 48.08 51.80 49.13 50.21 53.53 47.42 45.62 43.07 42.50 47.30
52.82 53.17 53.64 53.39 53.05 52.49 51.11 55.09 54.91 58.50 58.87 56.90 52.87 52.80 54.96 53.75 58.03 55.83 56.22 54.35 55.41 54.50 53.02 54.09 53.27 54.78 57.17 57.78 57.28 62.21 57.25 47.87 46.49 42.56 46.08 50.35 49.58 52.77 51.30 49.68 43.70 43.86 44.90 49.28
52.78 53.56 53.72 53.50 53.17 52.42 53.16 58.19 55.89 55.83 53.54 54.03 54.16 55.03 54.79 54.08 54.34 55.76 55.53 52.93 53.23 52.02 49.19 51.87 52.32 55.43 56.23 57.54 60.26 55.83 52.55 46.65 47.99 50.03 51.82 52.13 52.06 52.71 53.70 51.68 49.44 46.15 47.45 51.06
52.66 53.62 53.72 53.48 52.85 51.65 57.48 53.38 52.46 55.07 53.26 54.81 55.80 53.35 53.17 54.08 55.13 55.75 53.92 53.31 54.51 53.66 49.92 50.59 49.71 52.93 52.56 53.44 56.13 52.56 53.70 47.90 48.77 48.19 52.88 52.58 51.78 53.29 53.41 53.01 53.56 52.06 51.62 49.69
52.56 53.73 53.69 53.48 52.41 52.18 56.15 57.95 57.63 54.98 52.62 52.41 51.35 52.13 54.74 54.12 55.13 54.85 55.38 54.33 52.70 51.76 52.34 53.85 52.73 52.65 52.78 52.12 51.43 51.88 51.97 49.77 47.88 44.34 51.23 50.68 46.49 50.86 51.87 51.54 53.11 50.97 48.34 52.79
53.54 53.91 53.75 53.40 52.95 51.77 51.67 57.32 56.30 54.09 50.17 52.29 51.91 52.24 53.13 52.02 51.88 51.30 54.21 53.50 51.20 53.95 55.78 54.03 51.18 50.52 49.40 50.11 50.13 51.09 48.41 47.97 46.31 41.86 44.78 37.66 48.35 53.04 52.58 50.94 54.99 56.11 56.01 57.56
53.50 53.93 53.98 53.44 53.50 52.32 51.33 57.29 55.61 54.48 50.73 54.23 52.77 52.80 51.93 52.22 52.37 52.57 52.13 54.21 55.02 54.83 51.77 45.82 43.25 42.35 42.58 46.56 48.61 47.80 47.91 46.04 41.90 41.00 40.97 45.19 49.39 52.21 51.70 49.35 50.68 56.14 56.32 58.55
52.86 53.93 54.20 53.65 53.60 52.18 52.17 56.10 58.74 54.79 52.94 50.94 54.53 52.10 53.24 49.03 50.11 50.42 53.33 56.44 55.75 53.00 48.21 45.40 39.99 39.18 44.45 45.11 46.75 48.19 47.03 47.57 43.76 40.71 37.33 36.44 46.79 54.91 57.01 54.08 46.34 55.85 56.29 55.99
52.18 53.19 54.12 54.25 54.36 52.57 51.07 55.53 60.33 55.83 53.17 54.96 54.26 51.18 51.10 53.42 51.42 50.55 53.52 53.99 52.60 53.84 46.80 44.15 42.32 41.91 47.81 42.59 42.90 43.31 44.61 44.69 42.56 41.98 39.80 43.79 52.20 56.16 57.73 43.19 45.95 55.08 56.06 55.55
52.30 52.84 53.59 53.98 54.67 53.87 51.70 53.74 59.96 55.42 52.96 55.87 56.04 55.41 53.87 54.07 53.06 49.65 52.09 51.99 51.07 49.68 46.06 45.11 45.60 45.07 47.80 46.19 48.47 45.02 44.06 42.65 41.86 43.39 42.44 41.06 55.38 55.06 49.49 51.00 52.96 53.49 53.76 54.70
52.69 52.74 53.71 53.93 54.38 54.32 53.15 53.80 58.14 59.27 54.91 55.24 58.20 57.22 57.07 56.97 56.61 52.49 52.27 51.43 53.75 52.03 50.06 50.65 49.83 47.30 48.18 46.88 42.01 50.75 43.72 46.67 45.21 46.46 45.61 52.09 53.01 52.61 53.62 53.24 52.06 52.84 52.70 54.29
52.84 52.76 53.15 53.40 53.77 53.53 52.39 51.07 55.61 56.96 55.50 54.76 55.20 53.51 57.44 57.43 57.04 57.08 50.93 54.44 55.27 55.33 55.19 51.19 48.08 45.05 47.26 42.45 43.88 46.16 49.26 50.47 46.38 46.68 49.87 50.34 51.86 53.71 54.47 54.54 53.33 54.01 54.24 53.93
52.80 53.09 53.17 53.42 53.28 52.96 52.42 50.37 55.15 56.74 55.02 50.31 52.72 58.14 56.63 59.45 57.44 57.72 57.28 55.77 56.27 54.07 53.32 49.53 47.37 45.67 50.92 45.76 46.95 45.81 47.95 48.74 47.72 47.00 49.93 51.27 53.01 53.23 53.05 53.65 54.32 54.54 54.79 54.34
52.15 52.36 52.76 52.88 52.81 52.19 51.82 53.12 56.40 58.78 53.33 49.01 52.18 56.29 57.11 57.11 56.80 57.35 57.28 54.65 53.56 52.98 50.83 49.12 47.00 50.27 49.17 49.40 48.19 45.48 48.95 46.95 44.23 43.97 49.25 48.90 49.95 52.48 53.85 52.57 52.64 53.25 52.79 52.70
51.66 52.00 52.23 52.36 52.19 52.03 52.39 54.40 57.30 54.88 56.25 51.76 49.30 56.25 55.75 56.92 57.44 56.36 56.39 55.43 54.55 53.32 51.09 49.63 50.93 52.81 49.40 44.26 43.19 49.53 50.43 52.44 51.56 48.31 51.51 51.24 51.99 53.35 53.74 52.26 52.83 53.35 52.66 52.96
51.71 51.80 51.68 51.58 51.49 51.08 50.65 50.81 53.19 51.60 53.56 52.13 49.06 50.18 54.97 56.89 57.02 55.65 54.98 55.99 53.86 52.96 51.10 49.32 49.10 49.29 49.58 46.08 42.53 48.94 51.07 52.50 53.00 53.41 52.25 50.07 51.46 49.38 52.48 52.97 53.79 54.15 54.17 54.04
51.48 51.42 51.34 51.39 51.51 50.99 51.80 55.64 53.68 52.13 52.56 53.30 47.92 49.44 50.67 55.94 51.59 50.45 55.23 52.64 53.18 52.55 50.50 50.59 48.21 49.51 48.67 43.18 48.43 51.01 53.00 53.11 52.43 52.37 52.43 50.50 51.15 51.30 52.28 52.68 52.01 50.98 50.81 51.48
51.54 51.69 51.54 52.07 51.98 54.84 55.95 55.43 55.37 56.68 53.79 48.36 49.88 47.68 45.93 53.85 51.77 53.95 52.73 53.46 47.20 52.88 48.66 48.86 49.65 47.05 43.27 47.97 49.59 50.42 51.27 50.36 50.33 52.40 51.95 51.36 50.05 50.42 51.14 51.02 51.09 50.07 50.04 50.87
51.64 51.24 52.35 50.96 55.71 54.52 55.10 54.54 52.05 52.34 52.82 51.89 47.06 52.29 47.57 51.49 50.81 50.26 50.63 51.13 47.81 43.75 48.02 51.47 46.87 45.21 49.79 51.65 51.60 51.82 52.04 52.18 51.45 48.13 48.11 49.03 49.23 50.09 50.56 50.61 51.00 51.04 50.64 50.53
54.12 52.90 51.82 56.57 55.17 54.94 53.08 48.02 47.82 48.64 46.23 49.49 49.33 50.78 49.40 54.02 48.59 48.27 51.59 47.85 48.33 42.10 45.14 45.62 43.81 43.70 48.95 51.71 51.88 51.61 51.58 51.84 51.38 51.08 50.09 51.27 50.82 49.71 48.86 48.88 49.60 49.98 50.76 50.48
50.51 48.91 51.38 54.34 52.85 50.87 46.74 45.44 48.66 46.82 45.76 50.32 49.41 51.39 52.96 53.55 54.34 49.11 50.26 46.68 47.31 41.99 49.80 45.09 41.13 46.51 50.87 51.73 51.57 52.56 52.63 52.64 52.55 52.64 51.76 51.94 52.15 50.98 50.50 50.41 50.26 51.00 51.85 52.41
53.41 50.30 50.21 50.09 48.44 39.21 41.25 40.01 44.32 46.27 50.63 51.86 52.45 50.03 51.69 53.55 52.67 49.80 48.51 45.04 43.10 49.40 44.33 42.58 46.16 51.38 52.73 52.78 52.96 53.37 53.80 53.55 52.70 52.29 52.76 52.94 52.38 52.24 51.86 50.71 51.69 52.14 52.28 53.08
48.97 46.89 37.39 43.60 41.99 44.23 45.25 45.87 48.11 52.22 52.76 52.00 53.19 52.41 51.41 51.81 48.79 48.39 44.87 47.25 47.68 42.08 40.06 42.32 47.11 51.12 53.12 54.01 54.44 53.55 52.98 52.64 51.86 52.01 52.47 52.42 52.11 51.81 52.42 52.30 52.28 52.03 52.23 53.22
47.10 47.90 39.18 43.62 47.57 48.95 49.20 51.56 51.39 52.31 51.90 53.39 51.78 51.15 51.36 48.92 47.09 48.40 46.88 44.24 41.06 42.84 41.53 44.66 47.84 49.71 50.52 51.69 53.23 53.12 52.71 52.12 51.84 52.18 52.19 52.40 52.32 52.47 52.03 52.72 53.11 53.22 53.47 53.26
48.87 47.77 45.10 48.15 46.75 47.88 50.29 51.09 50.69 54.25 51.86 53.26 52.95 48.84 47.24 45.56 47.19 45.00 43.41 42.25 40.60 44.15 47.71 47.62 49.72 49.03 50.23 51.54 53.24 53.76 53.37 52.88 52.62 52.94 52.69 52.95 52.36 52.02 52.18 53.33 53.50 53.77 53.45 52.25
47.42 46.33 50.49 49.24 49.16 48.73 50.77 52.67 53.45 56.15 53.59 49.71 50.56 45.17 44.64 49.61 45.03 43.50 46.55 43.45 46.44 46.71 48.47 50.74 49.85 50.01 51.16 52.97 53.24 54.16 53.88 53.19 53.03 52.84 53.09 53.09 53.38 54.01 53.08 51.37 53.14 53.18 52.93 52.76